Flag for U.S.A. Weather past 2 weeks in Babylon, New York, U.S.A.

Now
56 °F

Partly sunny.


Feels Like: 52 °F
Forecast: 45 / 56 °F
Wind: 14 mph from Northwest

Location: Republic Airport


UV Index: 5 (Moderate)

Visibility: 10 mi


Pressure: 29.56 "Hg

Humidity: 49%

Dew point: 37 °F

Location of BabylonLocation

Historic Weather in Babylon

°F

Babylon temperature yesterday

Maximum temperature yesterday: 61 °F (at 2:53 PM)
Minimum temperature yesterday: 45 °F (at 1:53 AM)
Average temperature yesterday: 52 °F

Past Weeks' High & Low Weather Summary

 TemperatureHumidityPressure
High68 °F (Apr 11, 11:53 AM)100% (Apr 15, 1:53 AM)30.73 "Hg (Apr 15, 1:53 AM)
Low31 °F (Apr 16, 6:53 AM)24% (Apr 19, 1:53 PM)29.41 "Hg (Apr 8, 1:53 PM)
Average49 °F64%30.08 "Hg
* Reported Apr 8 12:53 PM — Apr 23 12:53 PM, Babylon, Weather by CustomWeather, © 2014

Note: Actual official high and low records may vary slightly from our data, if they occured in-between our weather recording intervals... More about our weather records

Advertising

Historic Weather Conditions — Data for Previous 24 hours

 ConditionsComfort  
Time TempWeatherWind HumidityBarometerVisibility
12:53 PM
Apr 23
56 °FPartly sunny.14 mph49%29.56 "Hg10 mi
11:53 AM53 °FOvercast.15 mph51%29.57 "Hg10 mi
10:53 AM54 °FOvercast.18 mph49%29.57 "Hg10 mi
9:53 AM52 °FScattered clouds.15 mph53%29.56 "Hg10 mi
8:53 AM50 °FMostly cloudy.10 mph57%29.56 "Hg10 mi
7:53 AM51 °FMore clouds than sun.10 mph63%29.55 "Hg10 mi
6:53 AM50 °FMostly cloudy.15 mph71%29.53 "Hg10 mi
5:53 AM53 °FPassing clouds.10 mph72%29.51 "Hg10 mi
4:53 AM54 °FMostly cloudy.8 mph77%29.49 "Hg10 mi
3:53 AM53 °FPassing clouds.7 mph83%29.49 "Hg10 mi
2:53 AM51 °FClear.5 mph89%29.48 "Hg7 mi
1:53 AM50 °FFog.No wind89%29.50 "Hg6 mi
12:53 AM51 °FClear.No wind89%29.50 "Hg9 mi
11:53 PM
Apr 22
51 °FClear.No wind86%29.51 "Hg10 mi
10:53 PM53 °FClear.No wind83%29.51 "Hg10 mi
9:53 PM53 °FPassing clouds.No wind83%29.54 "Hg10 mi
8:53 PM53 °FMostly cloudy.No wind80%29.55 "Hg10 mi
7:53 PM52 °FOvercast.5 mph80%29.54 "Hg10 mi
6:53 PM52 °FOvercast.7 mph80%29.55 "Hg10 mi
5:53 PM53 °FLight rain. Partly sunny.10 mph80%29.56 "Hg10 mi
4:53 PM56 °FScattered clouds.16 mph70%29.57 "Hg10 mi
3:53 PM59 °FSunny.15 mph64%29.59 "Hg10 mi
2:53 PM61 °FSunny.16 mph62%29.59 "Hg10 mi
Weather by CustomWeather, © 2014

See weather overview